Theta_e
340 348 345 340 315 312 308 312 318 316 316 322 325 324 322 326 318 306 336 344 349 350 353 357 361 360 360 361 361 360 361 360 358 357 357 360 360 360 360 360 359 359 359 360 359 359 359 360 359
343 346 341 329 310 304 308 318 314 318 321 324 327 327 326 323 334 332 335 347 350 351 353 355 360 361 360 360 361 360 361 359 359 361 360 360 361 361 360 360 360 360 360 360 360 359 360 360 359
342 342 327 319 312 306 308 318 318 322 325 326 326 331 329 326 332 334 341 349 350 350 353 354 360 360 360 360 361 360 360 359 360 361 361 361 361 360 360 360 360 360 359 359 359 360 359 360 360
338 333 330 315 311 318 317 319 322 323 327 330 329 325 332 338 335 340 348 351 349 350 352 358 361 361 360 360 360 358 360 360 361 361 360 360 359 357 357 359 358 360 360 358 359 358 358 359 361
340 330 316 314 317 320 321 323 324 322 324 327 329 324 327 337 342 346 349 350 348 349 352 355 360 361 361 360 360 360 359 360 361 361 361 360 360 360 360 358 358 358 360 360 359 359 358 360 361
324 326 313 309 315 323 323 325 326 326 327 328 326 326 327 339 341 346 348 348 350 349 352 353 359 360 361 360 360 361 361 360 360 359 359 359 359 359 360 359 358 356 357 358 358 358 359 361 361
322 319 313 316 317 320 323 329 325 325 325 326 331 324 331 335 343 344 345 346 348 349 349 352 354 355 360 360 360 360 361 360 360 359 360 359 360 360 360 357 356 356 355 356 356 357 357 360 359
332 322 318 318 316 317 327 330 330 326 324 334 334 322 325 334 341 344 346 347 347 348 349 348 350 351 353 354 361 361 360 360 360 359 361 361 360 359 359 360 359 355 354 355 355 357 357 359 360
337 319 315 316 318 320 328 325 332 333 328 330 333 331 335 339 341 342 342 344 346 348 346 347 349 350 352 352 356 358 359 360 360 359 361 354 352 355 355 358 359 357 356 356 356 356 357 357 357
325 315 319 325 326 323 325 329 327 327 326 327 330 336 337 338 338 337 338 338 342 344 345 346 346 347 350 355 350 352 353 352 350 348 348 349 349 353 355 357 358 360 359 359 358 360 359 354 351
326 320 326 325 329 328 327 328 328 324 322 326 326 331 334 335 337 336 338 339 340 343 345 346 346 347 347 349 347 345 346 345 342 343 345 346 348 351 350 351 350 350 354 345 343 344 350 351 349
322 330 328 327 331 329 327 331 326 326 329 333 333 335 335 333 335 336 336 338 340 341 343 345 346 345 347 347 344 341 342 341 337 339 343 344 345 346 346 346 347 344 347 344 346 343 344 345 347
322 327 328 330 329 330 330 328 329 329 333 335 335 334 333 334 335 338 338 339 339 339 342 344 344 344 344 344 343 338 339 339 338 339 344 345 345 344 345 345 343 342 346 346 344 345 346 347 344
327 327 327 327 328 329 326 327 327 329 334 333 332 332 333 334 335 336 337 335 338 340 341 343 343 345 344 342 340 337 337 338 339 340 342 344 344 345 346 345 343 345 346 346 343 347 346 347 342
326 321 324 326 326 324 327 321 322 331 333 330 331 331 333 334 336 335 336 336 338 339 342 341 342 345 342 341 340 336 337 338 339 340 341 343 345 346 344 344 345 347 348 348 349 349 348 347 342
319 319 312 322 325 326 325 313 325 332 330 328 330 331 332 334 335 337 337 338 339 339 340 341 345 344 342 340 337 337 338 338 341 340 342 344 347 347 347 346 346 349 348 349 349 346 345 343 345
309 305 312 316 322 323 321 316 324 330 328 328 329 329 330 331 335 337 339 339 338 339 339 340 343 342 342 341 340 340 342 340 340 341 344 348 350 351 349 347 346 346 347 347 347 348 345 343 342
301 307 313 312 318 319 317 318 323 326 327 327 328 328 328 330 333 337 338 339 339 339 340 340 341 341 342 341 341 342 343 344 343 342 346 349 350 351 348 342 343 346 349 349 348 347 343 343 342
311 312 311 314 318 315 314 318 321 324 325 326 325 323 325 330 334 337 338 340 339 339 338 338 338 340 341 341 339 339 340 343 345 347 349 348 349 348 342 340 342 345 347 350 351 349 344 342 344
312 311 311 316 319 317 315 314 320 323 324 325 327 325 323 329 330 336 336 338 337 337 337 338 339 340 341 341 341 341 341 343 350 350 349 350 350 350 343 342 340 347 345 349 352 350 346 341 341
309 309 311 311 317 319 315 310 315 321 323 326 328 329 327 329 329 331 334 336 337 336 336 337 339 340 342 343 343 343 344 344 346 346 348 350 350 352 347 338 342 345 343 348 351 351 348 345 344
300 315 315 314 311 305 315 301 310 315 318 322 325 325 325 329 331 332 334 335 335 336 339 338 339 339 343 344 343 341 339 338 342 344 346 348 352 351 349 342 343 342 342 351 353 349 347 346 346
304 317 315 314 309 309 309 303 307 313 313 318 322 324 325 327 330 332 334 336 337 338 339 339 339 340 343 344 343 341 339 341 342 344 346 348 350 351 351 348 346 339 345 350 353 345 344 344 345
318 313 310 309 307 298 305 304 304 308 312 318 321 324 327 327 331 333 335 337 336 339 339 341 340 340 343 342 342 341 340 340 342 343 343 345 347 349 350 351 348 341 347 351 353 347 342 343 346
310 301 293 291 294 293 304 303 306 313 316 320 321 323 327 328 331 331 332 335 336 337 338 340 340 339 341 341 341 342 341 341 341 343 344 344 346 347 349 350 349 348 349 350 352 352 344 341 348
306 299 293 288 293 296 306 301 306 315 319 321 325 325 328 328 330 330 332 335 336 337 339 340 340 340 340 342 342 342 342 342 343 345 345 346 345 347 350 351 351 350 350 351 351 352 351 351 351
307 300 304 298 301 296 300 306 313 316 317 320 322 325 327 328 330 331 332 335 337 337 339 340 340 340 341 341 343 342 342 342 343 345 347 347 348 348 349 351 351 350 350 352 352 350 350 350 352
307 309 298 298 293 291 296 300 302 308 313 317 318 322 326 329 331 332 332 334 338 339 339 341 342 341 342 341 342 343 342 343 343 346 346 346 347 349 351 350 351 350 352 353 351 352 351 350 350
298 299 295 298 297 292 292 295 312 312 313 315 318 321 324 328 330 332 332 334 337 340 340 341 341 341 341 342 342 344 344 343 342 344 347 347 347 348 349 351 350 350 349 351 352 351 351 349 350
296 293 294 292 290 295 295 296 316 317 318 319 320 324 326 330 330 332 333 334 335 336 339 340 342 341 343 343 344 343 344 345 345 346 347 347 346 348 348 347 346 347 349 351 351 350 352 349 348
Wind_Speed
4 4 2 0 4 4 3 2 3 8 8 4 12 3 4 4 1 4 4 5 11 6 4 4 9 10 10 10 11 11 13 13 15 14 13 12 12 13 13 14 14 13 14 15 14 14 12 13 15
3 4 1 1 5 4 2 2 9 6 5 16 5 6 4 3 3 8 5 7 9 7 5 5 8 10 10 10 11 11 12 13 13 12 12 11 11 11 12 13 13 13 13 14 15 14 13 11 11
3 3 2 2 3 3 3 2 5 8 15 5 5 6 3 3 6 5 5 10 9 6 5 6 11 11 10 10 10 12 14 12 11 10 10 10 10 10 12 13 12 14 11 12 13 13 13 13 13
1 3 2 5 3 4 3 5 12 8 7 7 9 7 5 4 5 5 10 10 9 5 5 8 11 11 10 9 12 14 12 11 11 11 11 11 10 10 11 11 10 12 11 11 12 13 12 11 14
2 2 4 3 4 3 6 6 7 4 5 6 2 4 5 3 10 12 9 8 8 5 5 5 10 9 10 11 11 11 12 11 11 10 11 9 9 11 11 10 11 10 10 10 10 13 13 9 12
4 2 4 3 3 3 5 7 5 8 6 5 9 6 3 4 11 8 7 6 6 6 4 3 9 10 10 10 11 11 11 10 11 10 10 9 8 9 10 10 10 9 9 9 10 11 12 12 11
5 3 1 2 4 5 5 3 5 5 6 5 5 5 4 2 5 7 7 6 5 5 4 3 4 7 8 10 10 11 10 11 11 8 9 7 9 10 10 10 9 9 9 9 10 11 11 11 7
2 4 2 4 3 1 4 4 3 5 4 5 10 6 7 4 7 8 7 6 5 4 4 4 2 4 3 4 12 11 9 11 11 9 9 9 9 11 10 8 9 9 9 9 9 9 10 10 11
1 3 3 5 6 3 6 2 2 4 8 2 3 7 8 13 11 8 6 4 3 2 3 3 3 5 4 3 6 7 10 12 10 10 11 8 4 5 5 6 8 9 9 8 8 8 8 8 8
3 2 3 6 7 4 4 3 4 5 4 6 11 14 14 14 11 10 9 9 8 4 2 3 3 4 4 5 4 4 4 4 4 6 5 3 4 2 3 4 7 8 9 10 8 8 7 5 2
3 2 6 7 8 14 6 6 3 14 3 6 17 15 15 14 9 8 7 6 8 3 3 4 3 4 4 4 3 3 1 3 3 5 4 3 3 3 3 2 3 3 7 3 4 4 3 3 0
2 2 3 6 8 11 8 5 5 3 1 12 16 18 16 14 10 9 8 7 6 5 4 4 5 4 4 3 3 3 3 3 3 3 3 2 2 2 2 2 3 3 2 3 2 1 3 3 3
3 3 9 2 6 5 1 8 5 3 9 13 15 15 14 12 10 9 8 5 6 6 5 6 5 4 4 5 3 3 3 3 3 2 1 2 2 2 2 3 3 2 2 2 2 2 1 3 3
5 11 7 9 6 5 5 6 4 3 8 16 16 15 13 12 13 9 10 8 7 6 7 6 6 5 5 5 4 3 3 3 2 1 2 1 1 2 0 2 2 3 2 2 2 2 2 3 3
5 7 8 8 1 3 7 7 10 3 3 14 15 12 12 10 11 12 12 9 10 7 8 7 6 5 6 6 4 3 3 3 3 3 2 1 1 2 3 1 1 2 2 3 2 2 0 2 2
4 4 4 3 2 4 0 4 9 9 7 9 15 13 12 11 13 8 10 9 8 7 9 7 8 7 5 5 4 3 3 3 3 2 2 1 2 3 2 1 1 2 2 2 2 2 2 3 2
6 2 4 3 2 4 3 3 4 5 11 12 15 13 12 8 8 7 10 9 8 7 8 8 7 8 7 6 4 3 3 2 2 2 2 3 3 2 2 2 2 2 2 3 2 3 2 1 2
4 3 2 3 2 3 1 4 3 1 9 15 14 12 11 12 16 11 10 8 7 7 6 5 5 7 6 4 3 2 2 1 2 3 2 2 2 2 3 3 2 2 2 3 2 3 3 2 1
6 5 6 1 3 1 2 2 3 5 2 3 4 11 12 15 11 8 9 7 8 6 7 8 7 7 7 3 3 2 3 2 2 2 2 3 2 3 4 2 1 2 3 2 2 2 4 4 2
6 8 4 2 2 3 2 3 4 3 1 1 5 6 15 10 8 11 10 9 9 9 7 7 7 9 6 4 3 3 3 2 1 2 3 3 4 5 5 4 2 2 2 2 3 3 2 2 3
2 6 5 3 4 3 2 5 6 5 5 6 9 6 8 15 15 12 12 11 9 9 8 8 7 7 7 6 4 3 3 3 2 1 0 2 4 4 5 5 4 3 1 1 2 3 3 2 3
4 7 7 8 3 1 3 4 4 6 9 11 11 8 8 15 13 14 14 11 11 11 7 7 8 7 6 8 5 5 4 4 3 3 2 2 2 2 3 4 4 3 2 1 1 2 2 2 2
5 4 7 3 5 3 4 2 4 4 9 13 9 9 8 13 15 15 16 16 12 10 9 7 8 6 7 7 7 5 4 3 3 2 4 3 2 2 3 3 3 2 2 2 0 2 4 2 2
7 6 8 5 1 0 6 5 5 9 14 16 10 11 10 12 15 14 12 9 8 7 7 7 8 6 6 7 7 8 8 6 3 3 3 2 2 2 2 4 4 3 2 2 2 2 3 4 3
5 5 3 2 1 5 4 2 11 7 8 19 18 14 12 13 16 14 14 14 10 10 11 8 10 8 6 7 8 8 7 7 7 5 4 4 3 2 4 4 4 3 3 2 2 2 3 3 2
5 6 7 6 3 2 2 7 8 2 12 9 18 17 13 13 13 17 18 15 15 14 12 11 11 10 8 6 7 6 7 5 4 4 4 3 4 3 4 4 4 4 4 3 2 0 1 1 2
6 5 5 6 2 1 5 7 4 3 7 10 12 16 17 15 16 17 16 15 14 14 14 14 12 9 10 9 5 5 5 6 6 6 4 3 4 4 5 5 5 5 5 4 4 2 2 2 2
6 6 2 2 4 4 4 4 4 9 5 10 12 15 19 22 19 17 16 16 14 13 13 11 10 13 10 9 8 6 5 5 5 4 5 6 5 4 4 5 5 6 5 4 4 3 3 4 3
2 2 2 5 3 5 1 4 5 13 11 14 15 13 17 18 20 19 16 15 13 10 11 12 11 11 9 9 7 7 7 6 4 5 5 5 4 5 5 4 4 5 6 5 4 5 5 4 3
2 3 4 5 5 2 3 4 9 13 7 5 4 7 14 16 17 15 16 12 11 11 10 12 10 11 12 10 9 9 7 6 5 5 5 5 6 4 4 4 4 5 6 5 6 6 5 6 5
Wind_Direction
206 150 178 4 57 69 52 38 120 111 165 178 151 152 134 50 103 172 128 132 119 120 146 120 131 127 127 122 126 118 117 117 113 116 122 117 119 117 110 106 104 105 106 104 101 92 97 94 92
157 167 253 354 79 64 321 347 132 149 140 127 116 102 61 62 60 110 108 136 122 126 121 122 131 126 131 129 124 124 116 119 127 125 128 120 109 112 103 104 105 99 97 102 98 96 92 93 86
167 215 112 81 96 123 140 71 94 117 125 114 114 58 66 70 92 131 132 127 113 114 130 149 136 132 127 126 124 118 122 125 120 119 113 109 106 100 98 92 91 99 100 101 99 99 98 93 89
197 2 43 60 59 355 116 102 118 110 74 74 115 70 75 104 142 137 128 115 111 129 138 137 134 130 131 132 125 126 124 127 125 126 118 118 112 107 98 99 87 90 102 102 94 85 81 91 95
58 62 49 69 24 7 89 80 57 67 73 71 115 94 73 11 108 119 115 114 128 136 155 136 139 141 130 136 133 133 135 133 134 138 123 121 106 103 98 98 100 96 93 94 82 75 77 88 102
44 70 49 65 45 5 69 77 83 68 64 114 82 87 62 114 121 117 101 111 117 131 129 148 147 147 140 143 144 137 139 144 133 125 127 117 104 102 102 95 96 99 95 90 81 72 63 81 106
106 81 56 16 104 57 44 50 91 93 99 69 110 85 110 95 102 100 102 103 104 107 112 105 124 156 153 147 148 145 145 136 127 130 119 117 115 108 104 92 92 92 95 91 83 76 72 80 106
110 100 71 24 105 222 335 8 88 121 69 90 146 142 162 177 116 108 95 94 103 107 131 132 108 101 117 139 149 146 153 127 128 130 133 134 115 98 94 80 93 94 96 94 89 83 80 77 72
24 82 141 167 138 277 323 70 144 97 118 84 126 123 133 130 128 110 108 110 99 121 132 129 134 124 123 134 138 144 150 138 138 125 81 65 53 60 80 110 102 98 95 92 94 91 86 86 72
91 102 213 139 113 179 284 325 166 120 125 69 86 92 121 136 144 144 159 168 176 163 142 118 149 109 116 92 111 90 71 70 79 76 73 74 71 76 57 63 91 83 62 47 47 54 63 69 70
160 222 119 159 139 161 209 276 140 133 132 170 143 138 147 148 151 162 164 174 174 147 146 148 143 136 126 123 104 87 98 84 75 85 79 67 54 31 38 42 40 37 52 37 16 6 14 2 359
156 132 134 165 147 155 183 309 83 110 359 148 149 147 158 160 160 172 172 166 164 156 152 166 172 153 115 85 95 118 103 87 86 76 88 83 77 56 32 35 28 36 32 29 9 4 310 295 258
178 92 52 219 139 81 176 70 28 90 133 135 142 149 164 157 171 171 177 155 141 161 166 188 164 153 132 104 106 103 116 122 112 108 116 94 75 78 31 23 28 47 13 355 343 312 327 325 350
73 83 88 53 63 92 98 93 57 334 136 146 156 160 171 177 173 168 162 166 161 157 175 178 169 166 145 133 152 154 140 130 126 154 185 106 74 95 41 23 343 339 359 306 307 302 331 342 24
153 94 75 32 72 84 102 131 212 238 304 163 166 167 170 186 176 184 168 168 164 179 169 175 168 162 153 153 155 162 167 165 162 192 197 163 108 93 140 134 326 307 308 316 313 318 321 16 52
53 72 92 22 69 138 319 188 201 225 270 200 179 174 174 181 191 185 166 169 174 165 175 170 179 157 164 158 151 158 174 164 167 188 210 192 176 148 138 105 48 6 11 340 12 29 72 75 63
15 133 105 142 65 122 40 131 167 206 269 216 185 179 183 168 189 191 174 173 170 167 170 179 182 162 165 149 147 152 162 162 143 199 222 194 184 153 141 107 68 34 35 24 9 51 85 109 124
173 133 64 161 137 83 85 98 118 331 264 189 181 185 183 181 196 183 172 167 152 154 160 167 169 151 146 124 122 103 62 19 180 204 214 210 109 90 118 103 67 19 34 31 32 65 53 74 69
130 115 115 52 93 46 126 171 44 342 23 78 164 188 193 199 181 164 173 154 143 157 160 169 158 149 141 135 137 131 178 180 204 208 208 197 172 131 108 74 100 26 20 6 48 76 47 27 11
123 134 152 150 173 75 74 285 149 247 276 269 300 219 202 181 166 171 171 162 175 174 177 168 166 160 158 141 146 149 147 150 157 170 168 197 182 181 145 163 151 72 357 332 57 76 74 36 14
173 147 164 166 162 48 17 294 175 180 215 252 250 256 213 190 180 175 177 178 166 182 179 177 174 164 156 150 119 98 88 74 69 86 69 219 209 173 139 141 141 116 213 359 36 72 114 144 36
178 183 149 136 126 331 127 278 264 179 185 212 221 204 221 199 201 177 180 182 179 185 179 171 172 172 170 159 157 149 159 159 188 169 180 181 173 153 152 129 144 167 189 125 52 96 106 122 133
245 182 133 129 128 134 180 247 254 147 221 208 209 202 214 198 184 189 187 192 185 173 178 174 165 176 170 176 169 154 162 170 148 149 153 168 167 212 157 150 171 208 205 164 140 100 101 94 130
129 64 47 46 52 134 207 181 233 195 210 201 187 203 195 192 186 196 191 181 184 159 171 161 169 187 186 170 168 169 170 171 160 162 175 190 165 230 216 173 174 212 242 208 181 119 125 111 115
76 80 45 350 324 231 145 194 254 215 205 200 177 191 191 194 185 178 178 180 181 180 184 172 174 188 197 188 174 178 183 179 187 188 188 174 184 205 225 196 184 196 216 229 224 171 130 158 158
174 150 165 169 190 248 28 234 261 267 191 197 190 173 177 185 187 181 183 182 183 185 189 182 184 187 183 195 194 184 174 178 189 195 196 207 198 190 183 209 199 206 210 198 197 204 197 243 248
202 201 195 104 37 99 215 282 349 300 164 174 183 171 177 179 191 187 184 182 187 185 191 190 183 197 185 187 180 200 192 183 192 202 194 197 194 212 209 200 194 205 207 192 179 201 223 201 240
155 161 100 347 159 240 267 295 277 334 235 198 183 192 188 178 185 187 187 184 187 192 184 186 189 193 193 187 183 186 207 199 189 185 200 200 204 212 211 202 196 202 207 206 184 189 227 207 201
98 233 60 107 125 166 288 281 324 298 262 210 210 211 198 189 185 180 185 184 184 186 181 192 189 187 190 188 186 184 192 196 203 203 207 211 205 202 222 227 207 198 198 206 206 209 197 216 215
157 127 135 128 216 155 148 273 340 337 318 230 177 190 185 185 177 185 176 168 160 179 182 192 193 195 197 191 186 191 189 189 191 214 219 197 219 215 217 193 196 204 206 201 204 220 214 209 215